Location: Montreal
(45.5000°N, 73.5833°W)
Time: 10:28:03
(UTC-04:00)

Tiangong 1 - Pass Details

Date: 09 October 2017
Orbit: 293 x 320 km, 42.8° (Epoch: 20 October)

Event Time Altitude Azimuth Distance (km) Brightness Sun altitude
Rises 19:09:47 0° 253° (WSW) 2,040 6.4 -9.7°
Reaches altitude 10° 19:11:49 10° 246° (WSW) 1,206 4.7 -10.0°
Maximum altitude 19:14:23 41° 173° (S) 463 1.4 -10.5°
Enters shadow 19:16:01 18° 109° (ESE) 841 2.2 -10.8°
